Location: *
(52.2090°N, 4.1550°W)
Time: 20:14:06
(UTC+00:00)

Cosmos 614 Rocket - Pass Details

Date: 19 July 2019
Orbit: 733 x 764 km, 74.1° (Epoch: 16 August)

Event Time Altitude Azimuth Distance (km) Brightness Sun altitude
Rises 22:36:32 0° 214° (SW) 3,150 6.9 -13.4°
Reaches altitude 10° 22:38:53 10° 218° (SW) 2,233 6.1 -13.6°
Maximum altitude 22:43:54 62° 299° (WNW) 827 4.4 -13.9°
Drops below altitude 10° 22:48:58 10° 21° (NNE) 2,258 7.1 -14.2°
Sets 22:51:22 0° 24° (NNE) 3,189 7.9 -14.3°
